Location: Molveno
(46.1500°N, 10.9667°E)
Time: 15:26:07
(UTC+00:00)

Cosmos 2228 Rocket - Pass Details

Date: 05 July 2020
Orbit: 617 x 653 km, 82.5° (Epoch: 11 August)

Event Time Altitude Azimuth Distance (km) Brightness Sun altitude
Rises 22:51:14 0° 359° (N) 2,987 8.1 -20.9°
Reaches altitude 10° 22:53:43 10° 9° (N) 2,069 6.8 -20.9°
Maximum altitude 22:57:50 32° 73° (ENE) 1,125 4.4 -21.0°
Enters shadow 22:59:21 26° 108° (ESE) 1,289 4.4 -21.0°
